DW9161 Weather Reports


Display with metric or nautical units.
time (UTC)temp
F
wind
direction
speed
MPH
gust
MPH
rain 1hr
in
rain 24hr
in
rain mn
in
humidity
%
barometer
mb
20260503032537 59 200 5.0 11.0 0.00 0.00 0.00 39 1014.1
20260503032054 59 202 4.0 8.0 0.00 0.00 0.00 39 1014.1
20260503031551 59 207 3.0 9.0 0.00 0.00 0.00 39 1014.2
20260503031045 59 204 4.0 9.0 0.00 0.00 0.00 39 1014.2
20260503030612 59 176 3.0 11.0 0.00 0.00 0.00 39 1014.2
20260503030041 59 174 2.0 11.0 0.00 0.00 0.00 39 1014.3
20260503025539 59 190 3.0 7.0 0.00 0.00 0.00 38 1014.4
20260503025057 59 186 3.0 6.0 0.00 0.00 0.00 38 1014.4
20260503024533 60 198 3.0 6.0 0.00 0.00 0.00 38 1014.5
20260503024050 60 186 2.0 6.0 0.00 0.00 0.00 38 1014.6
20260503023546 60 180 2.0 7.0 0.00 0.00 0.00 38 1014.6
20260503023044 60 200 3.0 7.0 0.00 0.00 0.00 37 1014.6
20260503022540 60 191 3.0 6.0 0.00 0.00 0.00 37 1014.7
20260503022037 60 204 2.0 6.0 0.00 0.00 0.00 37 1014.6
20260503021539 60 208 2.0 6.0 0.00 0.00 0.00 37 1014.8
20260503021036 61 191 1.0 2.0 0.00 0.00 0.00 36 1014.8
20260503020605 61 191 1.0 2.0 0.00 0.00 0.00 36 1014.8
20260503020045 61 191 1.0 1.0 0.00 0.00 0.00 36 1014.8
20260503015542 61 191 0.0 2.0 0.00 0.00 0.00 36 1014.9
20260503015059 62 191 1.0 2.0 0.00 0.00 0.00 35 1014.9
20260503014537 62 191 1.0 2.0 0.00 0.00 0.00 35 1014.9
20260503014033 62 191 1.0 2.0 0.00 0.00 0.00 35 1015.0
20260503013551 62 192 1.0 2.0 0.00 0.00 0.00 34 1014.9
20260503013049 63 192 0.0 2.0 0.00 0.00 0.00 34 1014.9
20260503012545 63 192 0.0 3.0 0.00 0.00 0.00 34 1014.9
20260503012102 63 199 1.0 4.0 0.00 0.00 0.00 33 1014.9
20260503011536 64 200 2.0 4.0 0.00 0.00 0.00 33 1014.9
20260503011034 64 201 1.0 4.0 0.00 0.00 0.00 33 1014.9
20260503010603 64 201 2.0 5.0 0.00 0.00 0.00 32 1014.9
20260503010042 65 200 3.0 5.0 0.00 0.00 0.00 32 1015.0
20260503005540 65 195 3.0 6.0 0.00 0.00 0.00 32 1015.0
20260503005038 65 203 2.0 6.0 0.00 0.00 0.00 32 1015.0
20260503004557 65 192 3.0 6.0 0.00 0.00 0.00 31 1015.0
20260503004033 66 229 3.0 7.0 0.00 0.00 0.00 30 1015.1
20260503003536 66 221 2.0 7.0 0.00 0.00 0.00 30 1015.0
20260503003034 66 226 4.0 11.0 0.00 0.00 0.00 30 1015.0
20260503002532 66 205 5.0 11.0 0.00 0.00 0.00 29 1015.0
20260503002049 66 217 5.0 8.0 0.00 0.00 0.00 29 1015.1
20260503001546 66 216 4.0 8.0 0.00 0.00 0.00 30 1015.2
20260503001043 67 229 5.0 9.0 0.00 0.00 0.00 29 1015.4
20260503000553 67 218 5.0 9.0 0.00 0.00 0.00 29 1015.4
20260503000052 67 186 4.0 7.0 0.00 0.00 0.00 29 1015.4
20260502235549 67 208 3.0 8.0 0.00 0.00 0.00 29 1015.6
20260502235047 67 219 4.0 8.0 0.00 0.00 0.00 29 1015.7
20260502234544 67 224 4.0 9.0 0.00 0.00 0.00 29 1015.7
20260502234042 68 196 4.0 9.0 0.00 0.00 0.00 28 1015.7
20260502233538 68 227 5.0 7.0 0.00 0.00 0.00 28 1015.9
20260502233034 68 231 3.0 7.0 0.00 0.00 0.00 30 1015.9
20260502232549 69 219 1.0 5.0 0.00 0.00 0.00 29 1016.0
20260502232045 69 231 2.0 7.0 0.00 0.00 0.00 30 1016.0
20260502231541 69 221 4.0 7.0 0.00 0.00 0.00 28 1016.0
20260502231056 68 223 2.0 7.0 0.00 0.00 0.00 28 1016.1
20260502230625 69 211 4.0 7.0 0.00 0.00 0.00 28 1016.2
20260502230042 68 281 3.0 13.0 0.00 0.00 0.00 30 1016.1
20260502225541 68 222 5.0 13.0 0.00 0.00 0.00 29 1016.2
20260502225036 68 7 3.0 7.0 0.00 0.00 0.00 28 1016.2
20260502224530 67 203 2.0 6.0 0.00 0.00 0.00 29 1016.3
20260502224047 67 264 2.0 8.0 0.00 0.00 0.00 29 1016.5
20260502223542 67 273 5.0 9.0 0.00 0.00 0.00 28 1016.6
20260502223037 67 218 5.0 9.0 0.00 0.00 0.00 29 1016.7
20260502222531 67 250 5.0 9.0 0.00 0.00 0.00 29 1016.8
20260502222046 67 262 3.0 9.0 0.00 0.00 0.00 29 1016.8
20260502221603 67 193 6.0 9.0 0.00 0.00 0.00 28 1016.9
20260502221059 67 323 3.0 9.0 0.00 0.00 0.00 29 1016.9
20260502220625 66 268 4.0 11.0 0.00 0.00 0.00 29 1016.9
20260502220040 66 264 5.0 11.0 0.00 0.00 0.00 29 1016.9
20260502215535 66 265 4.0 11.0 0.00 0.00 0.00 30 1017.0
20260502215049 66 221 5.0 10.0 0.00 0.00 0.00 29 1017.1
20260502214607 66 175 5.0 10.0 0.00 0.00 0.00 30 1017.1
20260502214042 66 265 5.0 9.0 0.00 0.00 0.00 30 1017.2
20260502213538 66 282 3.0 9.0 0.00 0.00 0.00 31 1017.2
20260502213033 66 212 3.0 8.0 0.00 0.00 0.00 30 1017.3
20260502212548 66 269 4.0 9.0 0.00 0.00 0.00 30 1017.5
20260502212045 66 259 4.0 9.0 0.00 0.00 0.00 30 1017.5
20260502211537 66 251 3.0 6.0 0.00 0.00 0.00 30 1017.5
20260502211055 66 248 4.0 6.0 0.00 0.00 0.00 31 1017.7
20260502210602 66 214 3.0 8.0 0.00 0.00 0.00 31 1017.7
20260502210059 66 319 3.0 8.0 0.00 0.00 0.00 31 1017.8
20260502205532 65 259 3.0 9.0 0.00 0.00 0.00 32 1018.1
20260502205049 66 231 3.0 8.0 0.00 0.00 0.00 32 1018.1
20260502204544 66 175 3.0 8.0 0.00 0.00 0.00 31 1018.2
20260502204100 66 212 5.0 9.0 0.00 0.00 0.00 31 1018.3
20260502203536 66 293 4.0 9.0 0.00 0.00 0.00 33 1018.3
20260502203049 65 352 3.0 8.0 0.00 0.00 0.00 32 1018.3
20260502202545 65 211 3.0 8.0 0.00 0.00 0.00 31 1018.5
20260502202042 66 263 3.0 8.0 0.00 0.00 0.00 31 1018.6
20260502201540 65 226 3.0 10.0 0.00 0.00 0.00 32 1018.7
20260502201036 65 221 3.0 10.0 0.00 0.00 0.00 34 1018.7
20260502200625 66 272 2.0 7.0 0.00 0.00 0.00 33 1018.8
20260502200041 65 169 3.0 7.0 0.00 0.00 0.00 34 1018.9
20260502195536 64 242 3.0 8.0 0.00 0.00 0.00 33 1019.0
20260502195032 65 309 5.0 9.0 0.00 0.00 0.00 32 1019.1
20260502194608 65 305 5.0 10.0 0.00 0.00 0.00 33 1019.1
20260502194045 65 338 5.0 10.0 0.00 0.00 0.00 34 1019.3
20260502193540 65 232 3.0 7.0 0.00 0.00 0.00 34 1019.3
20260502193035 64 21 3.0 7.0 0.00 0.00 0.00 33 1019.4
20260502192530 64 182 4.0 7.0 0.00 0.00 0.00 34 1019.5
20260502192047 64 269 3.0 8.0 0.00 0.00 0.00 35 1019.6
20260502191602 63 252 2.0 6.0 0.00 0.00 0.00 37 1019.6
20260502191036 63 255 3.0 9.0 0.00 0.00 0.00 33 1019.7
20260502190625 63 307 5.0 9.0 0.00 0.00 0.00 35 1019.7
20260502190041 63 253 2.0 9.0 0.00 0.00 0.00 36 1019.9
20260502185535 63 337 4.0 14.0 0.00 0.00 0.00 37 1020.0
20260502185031 63 341 6.0 14.0 0.00 0.00 0.00 35 1020.2
20260502184547 63 224 3.0 9.0 0.00 0.00 0.00 35 1020.2
20260502184042 62 270 4.0 6.0 0.00 0.00 0.00 38 1020.3
20260502183539 62 307 3.0 13.0 0.00 0.00 0.00 35 1020.3
20260502183118 62 264 5.0 13.0 0.00 0.00 0.00 35 1020.4
20260502182550 62 335 2.0 6.0 0.00 0.00 0.00 37 1020.3
20260502182107 61 267 2.0 10.0 0.00 0.00 0.00 40 1020.4
20260502181543 61 341 2.0 7.0 0.00 0.00 0.00 36 1020.5
20260502181038 61 265 2.0 8.0 0.00 0.00 0.00 39 1020.6
20260502180628 60 257 4.0 8.0 0.00 0.00 0.00 38 1020.7
20260502164043 57 359 1.0 5.0 0.00 0.00 0.00 41 1021.4
20260502163541 57 327 2.0 9.0 0.00 0.00 0.00 41 1021.6
20260502163038 57 233 3.0 7.0 0.00 0.00 0.00 40 1021.6
20260502162539 57 345 3.0 6.0 0.00 0.00 0.00 40 1021.6
20260502162037 57 234 4.0 6.0 0.00 0.00 0.00 39 1021.7
20260502161535 56 353 3.0 6.0 0.00 0.00 0.00 41 1021.7
20260502161033 56 328 4.0 7.0 0.00 0.00 0.00 40 1021.8
20260502160622 56 252 2.0 7.0 0.00 0.00 0.00 40 1021.8
20260502152040 53 290 2.0 4.0 0.00 0.00 0.00 50 1021.9
20260502151538 52 290 2.0 4.0 0.00 0.00 0.00 48 1021.9
20260502151034 52 291 2.0 5.0 0.00 0.00 0.00 48 1021.9
20260502150603 52 289 3.0 5.0 0.00 0.00 0.00 51 1021.9
20260502130624 40 322 1.0 2.0 0.00 0.00 0.00 75 1022.1
20260502123532 37 322 0.0 0.0 0.00 0.00 0.00 78 1022.0
20260502123131 37 322 0.0 0.0 0.00 0.00 0.00 79 1022.0
20260502122544 36 322 0.0 0.0 0.00 0.00 0.00 79 1022.0
20260502122040 36 322 0.0 0.0 0.00 0.00 0.00 81 1022.0
20260502121538 36 322 0.0 0.0 0.00 0.00 0.00 81 1021.9
20260502121035 35 322 0.0 0.0 0.00 0.00 0.00 81 1021.9
20260502120604 35 322 0.0 0.0 0.00 0.00 0.00 81 1021.9
20260502115540 35 322 0.0 0.0 0.00 0.00 0.00 82 1021.8
20260502115039 35 322 0.0 2.0 0.00 0.00 0.00 81 1021.9
20260502114537 35 322 1.0 2.0 0.00 0.00 0.00 82 1021.8
20260502114035 35 322 0.0 0.0 0.00 0.00 0.00 82 1021.7
20260502113534 35 322 0.0 0.0 0.00 0.00 0.00 82 1021.7
20260502113048 35 322 0.0 0.0 0.00 0.00 0.00 81 1021.7
20260502112531 35 322 0.0 0.0 0.00 0.00 0.00 81 1021.7
20260502112105 35 322 0.0 1.0 0.00 0.00 0.00 81 1021.6
20260502111546 35 322 0.0 1.0 0.00 0.00 0.00 81 1021.6
20260502111043 35 322 0.0 0.0 0.00 0.00 0.00 81 1021.5
20260502110551 35 322 0.0 0.0 0.00 0.00 0.00 80 1021.5
20260502110050 35 322 0.0 0.0 0.00 0.00 0.00 81 1021.5
20260502105548 35 322 0.0 0.0 0.00 0.00 0.00 81 1021.5
20260502105046 35 322 0.0 0.0 0.00 0.00 0.00 81 1021.4
20260502104543 35 322 0.0 0.0 0.00 0.00 0.00 81 1021.4
20260502104041 35 322 0.0 0.0 0.00 0.00 0.00 80 1021.4
20260502103536 35 322 0.0 0.0 0.00 0.00 0.00 80 1021.5
20260502103033 35 322 0.0 0.0 0.00 0.00 0.00 81 1021.4
20260502102531 35 322 0.0 0.0 0.00 0.00 0.00 81 1021.4
20260502102110 36 322 0.0 0.0 0.00 0.00 0.00 81 1021.3
20260502101546 36 322 0.0 0.0 0.00 0.00 0.00 80 1021.3
20260502101042 36 322 0.0 0.0 0.00 0.00 0.00 78 1021.3
20260502091039 39 322 0.0 0.0 0.00 0.00 0.00 72 1021.0
20260502090608 39 322 0.0 0.0 0.00 0.00 0.00 70 1021.0
20260502071534 40 322 0.0 0.0 0.00 0.00 0.00 66 1021.1
20260502071033 40 322 0.0 0.0 0.00 0.00 0.00 67 1021.2
20260502070600 41 322 0.0 0.0 0.00 0.00 0.00 65 1021.1
20260502070039 41 322 0.0 0.0 0.00 0.00 0.00 65 1021.1
20260502065558 40 322 0.0 0.0 0.00 0.00 0.00 65 1021.2
20260502065033 40 322 0.0 0.0 0.00 0.00 0.00 66 1021.1
20260502064536 41 322 0.0 0.0 0.00 0.00 0.00 69 1021.1
20260502064053 41 322 0.0 0.0 0.00 0.00 0.00 69 1021.2
20260502063549 41 322 0.0 0.0 0.00 0.00 0.00 68 1021.2
20260502063046 41 322 0.0 0.0 0.00 0.00 0.00 66 1021.2
20260502062607 42 322 0.0 0.0 0.00 0.00 0.00 64 1021.1
20260502062043 42 322 0.0 0.0 0.00 0.00 0.00 63 1021.2
20260502061541 42 322 0.0 0.0 0.00 0.00 0.00 62 1021.1
20260502061039 42 322 0.0 0.0 0.00 0.00 0.00 61 1021.1
20260502060607 43 322 0.0 0.0 0.00 0.00 0.00 59 1021.0
20260502060045 43 322 0.0 0.0 0.00 0.00 0.00 59 1021.0
20260502055542 43 322 0.0 0.0 0.00 0.00 0.00 60 1021.0
20260502055102 44 322 0.0 0.0 0.00 0.00 0.00 59 1021.0
20260502054540 44 322 0.0 0.0 0.00 0.00 0.00 56 1021.0
20260502054036 44 322 0.0 0.0 0.00 0.00 0.00 56 1020.9
20260502053533 44 322 0.0 0.0 0.00 0.00 0.00 55 1020.9
20260502053051 44 322 0.0 0.0 0.00 0.00 0.00 55 1020.9
20260502052608 44 322 0.0 0.0 0.00 0.00 0.00 56 1020.9
20260502052043 44 322 0.0 0.0 0.00 0.00 0.00 54 1020.8
20260502051541 44 322 0.0 0.0 0.00 0.00 0.00 55 1020.8
20260502051037 45 322 0.0 0.0 0.00 0.00 0.00 54 1020.9
20260502050604 45 322 0.0 0.0 0.00 0.00 0.00 53 1020.8
20260502050044 45 322 0.0 0.0 0.00 0.00 0.00 53 1020.8
20260502045541 45 322 0.0 1.0 0.00 0.00 0.00 53 1020.7
20260502045036 45 322 0.0 1.0 0.00 0.00 0.00 52 1020.7
20260502044533 45 322 0.0 1.0 0.00 0.00 0.00 52 1020.7
20260502044048 45 322 0.0 0.0 0.00 0.00 0.00 53 1020.7
20260502043545 45 322 0.0 0.0 0.00 0.00 0.00 53 1020.7
20260502043059 45 322 0.0 0.0 0.00 0.00 0.00 54 1020.7
20260502042606 45 322 0.0 0.0 0.00 0.00 0.00 54 1020.7
20260502042041 45 322 0.0 0.0 0.00 0.00 0.00 55 1020.7
20260502041537 45 322 0.0 0.0 0.00 0.00 0.00 54 1020.7
20260502041051 45 322 0.0 1.0 0.00 0.00 0.00 54 1020.7
20260502040558 45 322 0.0 1.0 0.00 0.00 0.00 54 1020.6
20260502040036 46 322 0.0 1.0 0.00 0.00 0.00 54 1020.6
20260502035552 46 322 0.0 0.0 0.00 0.00 0.00 53 1020.6
20260502035109 46 322 0.0 1.0 0.00 0.00 0.00 53 1020.5
20260502034625 46 322 0.0 1.0 0.00 0.00 0.00 54 1020.6
20260502034056 46 322 1.0 1.0 0.00 0.00 0.00 53 1020.6
20260502033551 46 322 1.0 1.0 0.00 0.00 0.00 53 1020.5